TimeCDT,TemperatureF,Dew PointF,Humidity,Sea Level PressureIn,VisibilityMPH,Wind Direction,Wind SpeedMPH,Gust SpeedMPH,PrecipitationIn,Events,Conditions,WindDirDegrees,DateUTC
12:15 AM,64.6,61.2,89,29.77,7.0,South,19.6,23.0,0.06,Rain,Heavy Rain,190,2013-05-19 05:15:00
12:35 AM,66.2,59.4,79,29.73,10.0,WSW,4.6,17.3,0.13,Rain,Rain,250,2013-05-19 05:35:00
12:55 AM,67.1,59.2,76,29.70,10.0,SW,6.9,-,0.13,Rain,Light Rain,230,2013-05-19 05:55:00
1:15 AM,65.5,60.1,83,29.74,7.0,SSE,11.5,26.5,0.02,Rain,Rain,160,2013-05-19 06:15:00
1:35 AM,64.8,60.4,86,29.76,10.0,South,16.1,20.7,0.04,Rain,Rain,190,2013-05-19 06:35:00
1:55 AM,64.6,60.6,87,29.72,10.0,SW,11.5,18.4,0.06,Rain,Light Rain,230,2013-05-19 06:55:00
2:15 AM,64.2,60.8,89,29.73,10.0,South,11.5,16.1,0.01,Rain,Light Rain,170,2013-05-19 07:15:00
2:35 AM,63.9,60.8,90,29.70,10.0,Calm,Calm,-,0.01,,Mostly Cloudy,0,2013-05-19 07:35:00
2:55 AM,63.7,60.8,90,29.70,10.0,ENE,5.8,-,0.01,,Mostly Cloudy,60,2013-05-19 07:55:00
3:15 AM,63.5,61.0,91,29.70,10.0,SE,23.0,-,N/A,,Mostly Cloudy,130,2013-05-19 08:15:00
3:35 AM,63.1,60.6,91,29.70,10.0,SSE,11.5,-,N/A,,Mostly Cloudy,150,2013-05-19 08:35:00
3:55 AM,62.4,59.9,91,29.66,10.0,NW,3.5,-,N/A,,Scattered Clouds,310,2013-05-19 08:55:00
4:15 AM,62.1,60.1,93,29.65,10.0,WNW,6.9,-,N/A,,Clear,290,2013-05-19 09:15:00
4:35 AM,62.2,60.1,93,29.67,10.0,SSE,5.8,-,N/A,,Clear,150,2013-05-19 09:35:00
4:55 AM,61.7,59.7,93,29.68,10.0,SSE,9.2,-,N/A,,Clear,160,2013-05-19 09:55:00
5:15 AM,61.7,59.9,94,29.69,10.0,SSE,9.2,-,N/A,,Scattered Clouds,160,2013-05-19 10:15:00
5:35 AM,61.7,59.4,92,29.68,10.0,South,9.2,-,N/A,,Scattered Clouds,170,2013-05-19 10:35:00
5:55 AM,61.2,59.0,93,29.68,10.0,South,5.8,-,N/A,,Scattered Clouds,180,2013-05-19 10:55:00
6:15 AM,60.8,58.6,93,29.67,7.0,South,4.6,-,N/A,,Clear,180,2013-05-19 11:15:00
6:35 AM,59.9,58.1,94,29.65,5.0,East,5.8,-,N/A,,Clear,100,2013-05-19 11:35:00
7:15 AM,62.1,60.3,94,29.65,5.0,Calm,Calm,-,N/A,,Clear,0,2013-05-19 12:15:00
7:35 AM,62.6,60.4,93,29.67,7.0,SSW,3.5,-,N/A,,Clear,200,2013-05-19 12:35:00
7:55 AM,63.1,60.8,92,29.69,7.0,SSE,6.9,-,N/A,,Scattered Clouds,160,2013-05-19 12:55:00
8:15 AM,63.1,60.8,92,29.69,7.0,SE,8.1,-,N/A,,Mostly Cloudy,140,2013-05-19 13:15:00
8:35 AM,63.5,60.8,91,29.69,10.0,SSE,4.6,-,N/A,,Mostly Cloudy,160,2013-05-19 13:35:00
8:55 AM,63.5,60.8,91,29.68,10.0,East,4.6,-,N/A,,Scattered Clouds,100,2013-05-19 13:55:00
9:15 AM,63.9,61.2,91,29.66,10.0,East,6.9,-,N/A,Rain,Light Rain,80,2013-05-19 14:15:00
9:55 AM,65.3,61.7,88,29.64,10.0,East,6.9,-,N/A,,Mostly Cloudy,90,2013-05-19 14:55:00
10:15 AM,65.8,61.9,87,29.65,10.0,ESE,4.6,-,N/A,,Scattered Clouds,110,2013-05-19 15:15:00
10:35 AM,66.9,62.2,85,29.64,10.0,East,5.8,-,N/A,,Light Drizzle,90,2013-05-19 15:35:00
10:55 AM,68.2,63.0,83,29.65,10.0,ESE,9.2,-,N/A,,Scattered Clouds,120,2013-05-19 15:55:00
11:15 AM,68.4,62.4,81,29.66,10.0,SE,11.5,-,N/A,,Mostly Cloudy,130,2013-05-19 16:15:00
11:35 AM,67.8,62.4,83,29.67,10.0,SE,10.4,-,N/A,,Overcast,130,2013-05-19 16:35:00
11:55 AM,68.4,63.0,83,29.67,10.0,SSE,11.5,-,N/A,,Overcast,150,2013-05-19 16:55:00
12:15 PM,69.6,63.9,82,29.65,10.0,ESE,11.5,-,N/A,,Overcast,120,2013-05-19 17:15:00
12:35 PM,70.5,63.9,79,29.64,10.0,ESE,9.2,-,N/A,,Overcast,110,2013-05-19 17:35:00
12:55 PM,71.4,63.7,76,29.65,10.0,SSE,11.5,-,N/A,,Overcast,150,2013-05-19 17:55:00
1:15 PM,71.8,64.2,77,29.65,10.0,SSE,8.1,-,N/A,,Overcast,150,2013-05-19 18:15:00
1:35 PM,71.8,63.1,74,29.65,10.0,South,10.4,-,N/A,,Mostly Cloudy,170,2013-05-19 18:35:00
2:15 PM,73.9,63.0,68,29.63,10.0,West,3.5,-,N/A,,Mostly Cloudy,260,2013-05-19 19:15:00
2:35 PM,73.4,61.2,65,29.65,10.0,SW,4.6,-,N/A,,Mostly Cloudy,230,2013-05-19 19:35:00
3:15 PM,70.7,64.8,81,29.63,10.0,East,3.5,-,0.01,Rain,Light Rain,90,2013-05-19 20:15:00
3:35 PM,71.6,65.5,81,29.62,10.0,Calm,Calm,-,0.01,,Scattered Clouds,0,2013-05-19 20:35:00
3:55 PM,73.6,65.8,77,29.62,10.0,SSE,3.5,-,0.01,,Clear,150,2013-05-19 20:55:00
4:15 PM,75.2,65.3,71,29.60,10.0,SE,6.9,-,N/A,,Clear,130,2013-05-19 21:15:00
4:35 PM,73.8,65.3,75,29.59,10.0,ESE,5.8,-,N/A,,Clear,120,2013-05-19 21:35:00
4:55 PM,73.8,64.2,72,29.56,10.0,East,6.9,-,N/A,,Scattered Clouds,90,2013-05-19 21:55:00
5:15 PM,76.1,63.3,64,29.55,10.0,East,9.2,-,N/A,,Scattered Clouds,90,2013-05-19 22:15:00
5:35 PM,76.5,65.1,68,29.52,10.0,East,5.8,-,N/A,,Clear,100,2013-05-19 22:35:00
5:55 PM,76.8,65.7,68,29.52,10.0,East,10.4,-,N/A,,Clear,100,2013-05-19 22:55:00
6:15 PM,75.2,64.6,69,29.51,10.0,East,11.5,-,N/A,,Clear,100,2013-05-19 23:15:00
6:35 PM,73.4,64.0,72,29.53,10.0,East,13.8,-,N/A,,Clear,100,2013-05-19 23:35:00
6:55 PM,72.5,64.6,76,29.53,10.0,ESE,12.7,-,N/A,,Clear,120,2013-05-19 23:55:00
7:15 PM,71.8,63.9,76,29.53,10.0,SE,15.0,23.0,N/A,,Clear,130,2013-05-20 00:15:00
7:35 PM,70.0,63.1,79,29.53,10.0,SE,23.0,-,N/A,,Clear,140,2013-05-20 00:35:00
7:55 PM,68.5,60.8,76,29.52,10.0,SSE,18.4,26.5,N/A,,Clear,150,2013-05-20 00:55:00
8:15 PM,67.5,59.5,76,29.53,10.0,SSE,12.7,20.7,N/A,,Clear,160,2013-05-20 01:15:00
8:35 PM,66.7,59.2,77,29.55,10.0,SSE,11.5,-,N/A,,Scattered Clouds,150,2013-05-20 01:35:00
8:55 PM,64.0,54.7,72,29.61,10.0,NW,27.6,32.2,N/A,,Mostly Cloudy,310,2013-05-20 01:55:00
9:15 PM,61.7,54.1,76,29.62,10.0,WNW,15.0,31.1,N/A,,Overcast,290,2013-05-20 02:15:00
9:35 PM,61.5,54.9,79,29.63,10.0,West,10.4,-,N/A,Rain,Rain,260,2013-05-20 02:35:00
9:55 PM,60.8,55.6,83,29.60,7.0,Calm,Calm,-,0.02,Rain,Light Rain,0,2013-05-20 02:55:00
10:15 PM,60.1,56.7,88,29.60,7.0,East,5.8,-,0.02,Rain,Rain,80,2013-05-20 03:15:00
10:35 PM,59.9,56.8,90,29.58,10.0,East,8.1,-,0.02,,Mostly Cloudy,90,2013-05-20 03:35:00
11:15 PM,59.9,56.3,88,29.57,10.0,SE,6.9,-,N/A,,Scattered Clouds,140,2013-05-20 04:15:00
11:35 PM,59.9,56.7,89,29.56,10.0,South,8.1,-,N/A,,Scattered Clouds,190,2013-05-20 04:35:00
11:55 PM,59.5,55.8,87,29.53,10.0,SSW,8.1,-,N/A,,Clear,210,2013-05-20 04:55:00